Location: Days
(41.3591°N, 106.7339°W)
Time: 12:21:59
(UTC+00:00)

RS-15 - Pass Details

Date: 09 July 2022
Orbit: 1881 x 2163 km, 64.8° (Epoch: 13 August)

Event Time Altitude Azimuth Distance (km) Brightness Sun altitude
Rises 07:55:55 0° 318° (NW) 5,686 11.0 -25.5°
Reaches altitude 10° 08:00:47 10° 303° (WNW) 4,656 10.2 -25.3°
Maximum altitude 08:08:23 20° 263° (W) 3,855 9.3 -25.0°
Enters shadow 08:11:53 17° 242° (WSW) 3,997 9.3 -24.8°
